Location: Eyeline Observatory
(43.2182°N, 78.8632°W)
Time: 16:40:40
(UTC-05:00)

Vanguard 2 Rocket - All Passes

Search period start: 17 December 2017 00:00
Search period end: 27 December 2017 00:00
Orbit: 556 x 3326 km, 32.9° (Epoch: 16 December)

Date Brightness Start Highest point End Pass type
(mag) Time Alt. Az. Time Alt. Az. Time Alt. Az.
17 Dec - 01:43:29 10° W 01:57:24 25° SW 02:10:55 10° S visible
17 Dec - 15:54:05 10° SE 15:56:51 11° SE 16:00:01 10° ESE daylight
17 Dec - 17:59:53 10° SW 18:08:46 39° SSE 18:23:00 10° E visible
17 Dec - 20:11:23 10° WSW 20:23:30 57° S 20:42:07 10° ESE visible
17 Dec - 22:25:03 10° W 22:40:07 52° SSW 22:59:19 10° SE visible
18 Dec - 00:41:19 10° W 00:56:32 32° SW 01:12:26 10° SSE visible
18 Dec - 17:02:02 10° SSW 17:09:15 28° SE 17:20:14 10° E visible
18 Dec - 19:12:23 10° WSW 19:22:49 53° SSE 19:39:49 10° E visible
18 Dec - 21:25:12 10° W 21:38:46 56° S 21:57:58 10° ESE visible
18 Dec - 23:40:08 10° W 23:55:23 39° SSW 00:12:55 10° SSE visible
19 Dec - 02:00:29 10° WSW 02:10:44 17° SW 02:20:56 10° SSW visible
19 Dec - 16:05:04 10° S 16:10:11 18° SE 16:17:05 10° E daylight
19 Dec - 18:13:46 10° SW 18:22:37 45° SSE 18:37:23 10° E visible
19 Dec - 20:25:45 10° WSW 20:37:40 56° S 20:56:07 10° ESE visible
19 Dec - 22:39:41 10° W 22:54:06 45° SSW 23:12:33 10° SE visible
20 Dec - 00:57:01 10° W 01:10:03 24° SW 01:23:50 10° S night (unlit)
20 Dec - 17:15:34 10° SSW 17:22:56 35° SSE 17:34:55 10° E visible
20 Dec - 19:26:40 10° WSW 19:36:57 55° S 19:53:56 10° ESE visible
20 Dec - 21:39:44 10° W 21:52:54 50° SSW 22:11:30 10° SE visible
20 Dec - 23:55:17 10° W 00:09:07 31° SSW 00:25:03 10° SSE visible
21 Dec - 16:17:54 10° SSW 16:23:44 25° SE 16:32:24 10° E daylight
21 Dec - 18:27:54 10° WSW 18:36:41 49° SSE 18:51:37 10° E visible
21 Dec - 20:40:13 10° W 20:51:52 53° S 21:09:53 10° ESE visible
21 Dec - 22:54:30 10° W 23:08:03 37° SSW 23:25:14 10° SSE visible
22 Dec - 01:14:22 10° WSW 01:23:35 16° SW 01:33:18 10° SSW night (unlit)
22 Dec - 15:21:18 10° SSE 15:24:53 14° SE 15:29:23 10° ESE daylight
22 Dec - 17:29:29 10° SW 17:36:52 41° SSE 17:49:19 10° E visible
22 Dec - 19:41:04 10° WSW 19:51:11 53° S 20:07:54 10° ESE visible
22 Dec - 21:54:25 10° W 22:07:00 42° SSW 22:24:36 10° SE visible
23 Dec - 00:11:12 10° W 00:22:51 22° SW 00:36:05 10° S visible
23 Dec - 16:31:27 10° SSW 16:37:31 31° SSE 16:47:08 10° E daylight
23 Dec - 18:42:13 10° WSW 18:50:52 51° S 19:05:44 10° ESE visible
23 Dec - 20:54:49 10° W 21:06:05 46° SSW 21:23:20 10° SE visible
23 Dec - 23:09:48 10° W 23:21:58 28° SSW 23:37:07 10° SSE visible
24 Dec - 15:33:57 10° S 15:38:32 21° SE 15:44:59 10° E daylight
24 Dec - 17:43:39 10° WSW 17:50:59 45° SSE 18:03:35 10° E visible
24 Dec - 19:55:35 10° WSW 20:05:27 49° S 20:21:37 10° ESE visible
24 Dec - 22:09:22 10° W 22:21:05 34° SSW 22:37:05 10° SSE visible
25 Dec - 00:29:08 10° WSW 00:36:37 14° SW 00:44:46 10° SSW night (unlit)
25 Dec - 14:38:02 10° SSE 14:39:49 11° SE 14:41:49 10° ESE daylight
25 Dec - 16:45:23 10° SW 16:51:30 37° SSE 17:01:36 10° E daylight
25 Dec - 18:56:41 10° WSW 19:05:10 49° S 19:19:40 10° ESE visible
25 Dec - 21:09:35 10° W 21:20:18 38° SSW 21:36:18 10° SE visible
25 Dec - 23:26:01 10° WSW 23:35:54 20° SW 23:47:43 10° S visible
26 Dec - 15:47:28 10° SSW 15:52:24 27° SSE 15:59:50 10° E daylight
26 Dec - 17:58:01 10° WSW 18:05:14 46° S 18:17:42 10° ESE visible
26 Dec - 20:10:15 10° W 20:19:44 42° SSW 20:34:59 10° SE visible
26 Dec - 22:24:52 10° WSW 22:35:10 25° SSW 22:48:41 10° SSE visible
